TimeCDT,TemperatureF,Dew PointF,Humidity,Sea Level PressureIn,VisibilityMPH,Wind Direction,Wind SpeedMPH,Gust SpeedMPH,PrecipitationIn,Events,Conditions,WindDirDegrees,DateUTC
12:53 AM,34.0,26.1,73,30.22,10.0,WNW,12.7,-,N/A,,Clear,300,2012-10-05 05:53:00
1:53 AM,33.1,26.1,75,30.22,10.0,West,11.5,-,N/A,,Partly Cloudy,280,2012-10-05 06:53:00
2:53 AM,30.2,24.8,80,30.18,10.0,West,10.4,-,N/A,,Clear,270,2012-10-05 07:53:00
3:53 AM,32.0,26.1,79,30.21,10.0,WNW,16.1,-,N/A,,Clear,290,2012-10-05 08:53:00
4:53 AM,30.9,25.0,79,30.20,10.0,WNW,17.3,-,N/A,,Clear,290,2012-10-05 09:53:00
5:53 AM,30.9,25.0,79,30.20,10.0,WNW,16.1,-,N/A,,Clear,290,2012-10-05 10:53:00
6:53 AM,30.9,24.1,76,30.21,10.0,WNW,15.0,-,N/A,,Clear,290,2012-10-05 11:53:00
7:53 AM,30.0,24.1,79,30.22,10.0,West,17.3,-,N/A,,Clear,280,2012-10-05 12:53:00
8:53 AM,32.0,25.0,75,30.22,10.0,WNW,19.6,-,N/A,,Clear,300,2012-10-05 13:53:00
9:15 AM,33.8,24.8,70,30.19,10.0,WNW,20.7,26.5,N/A,,Mostly Cloudy,300,2012-10-05 14:15:00
9:53 AM,36.0,26.1,67,30.23,10.0,WNW,17.3,25.3,N/A,,Mostly Cloudy,300,2012-10-05 14:53:00
10:16 AM,35.6,26.6,70,30.20,10.0,NW,18.4,27.6,N/A,,Overcast,310,2012-10-05 15:16:00
10:42 AM,37.4,26.6,65,30.20,10.0,NW,21.9,31.1,N/A,,Overcast,310,2012-10-05 15:42:00
10:53 AM,37.9,27.0,65,30.24,10.0,NW,21.9,28.8,N/A,,Overcast,310,2012-10-05 15:53:00
11:53 AM,39.9,27.0,60,30.24,10.0,NW,26.5,34.5,0.00,,Overcast,320,2012-10-05 16:53:00
12:53 PM,41.0,28.0,60,30.24,10.0,NW,21.9,33.4,N/A,,Overcast,320,2012-10-05 17:53:00
1:32 PM,41.0,28.4,61,30.20,10.0,NW,24.2,33.4,N/A,,Mostly Cloudy,320,2012-10-05 18:32:00
1:53 PM,42.1,28.9,60,30.23,10.0,WNW,26.5,33.4,N/A,,Overcast,300,2012-10-05 18:53:00
2:53 PM,39.9,28.0,63,30.23,10.0,NW,23.0,33.4,N/A,,Overcast,320,2012-10-05 19:53:00
3:53 PM,41.0,28.0,60,30.23,10.0,NW,21.9,27.6,0.00,Rain,Light Rain,320,2012-10-05 20:53:00
4:24 PM,37.4,30.2,75,30.21,10.0,NNW,23.0,29.9,0.00,,Overcast,330,2012-10-05 21:24:00
4:53 PM,35.1,30.9,85,30.26,2.5,NNW,21.9,-,0.00,Snow,Light Snow,340,2012-10-05 21:53:00
5:02 PM,35.6,32.0,87,30.22,3.0,North,17.3,-,0.00,Snow,Light Snow,350,2012-10-05 22:02:00
5:22 PM,37.4,32.0,81,30.22,10.0,NNW,19.6,-,0.01,Rain,Light Rain,330,2012-10-05 22:22:00
5:43 PM,35.6,30.2,81,30.23,2.0,NNW,19.6,27.6,0.01,Snow,Light Snow,330,2012-10-05 22:43:00
5:53 PM,35.1,32.0,89,30.27,6.0,NW,15.0,-,0.01,Snow,Light Snow,320,2012-10-05 22:53:00
6:53 PM,37.0,30.9,79,30.27,7.0,North,21.9,33.4,0.00,,Overcast,350,2012-10-05 23:53:00
6:58 PM,35.6,30.2,81,30.24,1.8,NNW,20.7,33.4,0.00,Snow,Light Snow,330,2012-10-05 23:58:00
7:06 PM,33.8,30.2,87,30.24,3.0,NNW,17.3,-,0.01,Snow,Light Snow,340,2012-10-06 00:06:00
7:43 PM,35.6,30.2,81,30.25,10.0,NW,17.3,-,0.01,,Overcast,320,2012-10-06 00:43:00
7:53 PM,35.1,30.9,85,30.29,10.0,NW,13.8,-,0.01,,Overcast,320,2012-10-06 00:53:00
8:35 PM,33.8,30.2,87,30.26,6.0,NW,13.8,-,0.00,Snow,Light Snow,320,2012-10-06 01:35:00
8:42 PM,35.6,30.2,81,30.26,7.0,NW,17.3,21.9,0.00,Snow,Light Snow,320,2012-10-06 01:42:00
8:53 PM,35.1,30.9,85,30.30,8.0,NW,16.1,-,0.00,Snow,Light Snow,320,2012-10-06 01:53:00
9:08 PM,35.6,32.0,87,30.27,7.0,NNW,19.6,27.6,0.00,Snow,Light Snow,330,2012-10-06 02:08:00
9:53 PM,35.1,30.9,85,30.31,10.0,NNW,13.8,-,0.01,,Overcast,340,2012-10-06 02:53:00
10:17 PM,35.6,30.2,81,30.28,10.0,NNW,15.0,-,N/A,,Overcast,340,2012-10-06 03:17:00
10:53 PM,34.0,30.9,89,30.31,9.0,NNW,16.1,-,0.00,Snow,Light Snow,340,2012-10-06 03:53:00
11:01 PM,33.8,30.2,87,30.28,7.0,NNW,17.3,-,0.00,Snow,Light Snow,340,2012-10-06 04:01:00
11:16 PM,33.8,30.2,87,30.28,6.0,NNW,15.0,-,0.00,Snow,Light Snow,340,2012-10-06 04:16:00
11:26 PM,33.8,30.2,87,30.28,7.0,NNW,15.0,-,0.00,Snow,Light Snow,340,2012-10-06 04:26:00
11:53 PM,34.0,30.9,89,30.32,4.0,NNW,13.8,-,0.00,Snow,Light Snow,340,2012-10-06 04:53:00
11:57 PM,33.8,30.2,87,30.28,5.0,NNW,15.0,-,0.00,Snow,Light Snow,340,2012-10-06 04:57:00